Weather History for College Park, MD

Change the Weather History Date:

Sunday, March 10, 2013

  Actual Average Record
Temperature  
Mean Temperature 48 °F -  
Max Temperature 66 °F 54 °F 78 °F (1964)
Min Temperature 30 °F 32 °F 15 °F (1950)
Degree Days  
Heating Degree Days 17    
Moisture  
Dew Point 27 °F    
Average Humidity 51    
Maximum Humidity 96    
Minimum Humidity 17    
Precipitation  
Precipitation 0.00 in - - ()
Sea Level Pressure  
Sea Level Pressure 30.29 in    
Wind  
Wind Speed 2 mph (SSE)    
Max Wind Speed 13 mph    
Max Gust Speed 17 mph    
Visibility 10 miles    
Events      
Averages and records for this station are not official NWS values.
T = Trace of Precipitation, MM = Missing Value Source: NWS Daily Summary

Daily Weather History Graph

Daily Weather History Graph

Search for Another Location

Airport:

Trip Planner

Search our weather history database for the weather conditions in past years. The results will help you decide how hot, cold, wet, or windy it might be!

Date:

Astronomy

Mar. 10, 2013 Rise Set
Actual Time 7:26 AM EDT 7:09 PM EDT
Civil Twilight 6:59 AM EDT 7:36 PM EDT
Nautical Twilight 6:28 AM EDT 8:07 PM EDT
Astronomical Twilight 5:57 AM EDT 8:38 PM EDT
Moon 6:24 AM EDT (3/10) 6:15 PM EDT (3/10)
Length of Visible Light 12h 36m
Length of Day
11h 43m
Waning Crescent, 2% of the Moon is Illuminated
Mar 10
Waning Crescent
Mar 11
New
Mar 19
First Quarter
Mar 27
Full
Apr 3
Last Quarter

Hourly Weather History & Observations

Time (EDT) Temp. Dew Point Humidity Pressure Visibility Wind Dir Wind Speed Gust Speed Precip Events Conditions
12:15 AM 36.3 °F 30.2 °F 78% 30.30 in 10.0 mi Calm Calm - N/A   Clear
12:35 AM 35.6 °F 30.2 °F 81% 30.31 in 10.0 mi Calm Calm - N/A   Clear
12:55 AM 35.1 °F 29.3 °F 80% 30.31 in 10.0 mi Calm Calm - N/A   Clear
1:15 AM 34.7 °F 29.3 °F 81% 30.31 in 10.0 mi Calm Calm - N/A   Clear
1:35 AM 34.5 °F 29.8 °F 83% 30.31 in 10.0 mi Calm Calm - N/A   Clear
1:55 AM 33.8 °F 30.2 °F 87% 30.30 in 10.0 mi Calm Calm - N/A   Clear
3:15 AM 33.8 °F 31.8 °F 92% 30.30 in 10.0 mi Calm Calm - N/A   Clear
3:35 AM 33.1 °F 30.6 °F 90% 30.30 in 10.0 mi Calm Calm - N/A   Clear
3:55 AM 33.1 °F 30.4 °F 90% 30.29 in 10.0 mi Calm Calm - N/A   Clear
4:15 AM 32.2 °F 29.8 °F 91% 30.29 in 10.0 mi Calm Calm - N/A   Clear
4:55 AM 32.0 °F 30.0 °F 92% 30.29 in 10.0 mi Calm Calm - N/A   Clear
5:15 AM 32.4 °F 30.2 °F 92% 30.29 in 10.0 mi Calm Calm - N/A   Clear
5:35 AM 32.0 °F 30.2 °F 93% 30.30 in 10.0 mi Calm Calm - N/A   Clear
5:55 AM 31.8 °F 30.0 °F 93% 30.30 in 10.0 mi Calm Calm - N/A   Clear
6:15 AM 31.5 °F 30.0 °F 94% 30.31 in 10.0 mi Calm Calm - N/A   Clear
6:35 AM 32.0 °F 30.6 °F 94% 30.32 in 10.0 mi Calm Calm - N/A   Clear
6:55 AM 31.1 °F 29.8 °F 95% 30.32 in 10.0 mi Calm Calm - N/A   Clear
7:15 AM 31.1 °F 30.0 °F 96% 30.32 in 10.0 mi Calm Calm - N/A   Clear
7:35 AM 30.7 °F 29.1 °F 94% 30.32 in 10.0 mi Calm Calm - N/A   Clear
8:15 AM 32.2 °F 30.9 °F 95% 30.33 in 10.0 mi Calm Calm - N/A   Clear
8:35 AM 35.1 °F 31.8 °F 88% 30.32 in 10.0 mi Calm Calm - N/A   Clear
8:55 AM 37.6 °F 31.6 °F 79% 30.32 in 10.0 mi Calm Calm - N/A   Clear
9:15 AM 42.1 °F 32.0 °F 67% 30.32 in 10.0 mi Calm Calm - N/A   Clear
9:35 AM 44.2 °F 31.3 °F 60% 30.33 in 10.0 mi Calm Calm - N/A   Clear
9:55 AM 47.5 °F 30.9 °F 53% 30.34 in 10.0 mi Calm Calm - N/A   Clear
10:15 AM 49.5 °F 30.7 °F 49% 30.33 in 10.0 mi Calm Calm - N/A   Clear
10:35 AM 51.8 °F 29.7 °F 43% 30.34 in 10.0 mi Calm Calm - N/A   Clear
10:55 AM 53.8 °F 29.3 °F 39% 30.34 in 10.0 mi South 3.5 mph - N/A   Clear
11:15 AM 55.4 °F 30.7 °F 39% 30.34 in 10.0 mi Calm Calm - N/A   Clear
11:35 AM 56.5 °F 29.5 °F 36% 30.34 in 10.0 mi South 4.6 mph - N/A   Clear
11:55 AM 58.1 °F 30.4 °F 35% 30.33 in 10.0 mi SSE 3.5 mph - N/A   Clear
12:15 PM 59.2 °F 30.0 °F 33% 30.33 in 10.0 mi South 3.5 mph - N/A   Clear
12:35 PM 59.5 °F 30.2 °F 33% 30.32 in 10.0 mi SW 3.5 mph - N/A   Clear
12:55 PM 61.3 °F 31.3 °F 32% 30.32 in 10.0 mi South 3.5 mph - N/A   Clear
1:15 PM 62.4 °F 29.3 °F 29% 30.31 in 10.0 mi South 8.1 mph - N/A   Clear
1:35 PM 62.1 °F 26.6 °F 26% 30.30 in 10.0 mi South 3.5 mph - N/A   Clear
1:55 PM 63.0 °F 25.2 °F 24% 30.29 in 10.0 mi SSE 4.6 mph - N/A   Clear
2:15 PM 63.5 °F 27.1 °F 25% 30.28 in 10.0 mi SSW 4.6 mph - N/A   Clear
2:35 PM 63.9 °F 23.9 °F 22% 30.27 in 10.0 mi South 5.8 mph - N/A   Clear
2:55 PM 64.4 °F 20.7 °F 19% 30.26 in 10.0 mi SE 4.6 mph - N/A   Clear
3:15 PM 66.0 °F 21.6 °F 18% 30.25 in 10.0 mi South 8.1 mph - N/A   Clear
3:30 PM 65.3 °F 22.6 °F 20% 30.25 in 10.0 mi SSE 6.9 mph - N/A   Clear
3:55 PM 66.2 °F 19.8 °F 17% 30.25 in 10.0 mi South 6.9 mph - N/A   Clear
4:15 PM 65.3 °F 25.2 °F 22% 30.25 in 10.0 mi East 10.4 mph 17.3 mph N/A   Clear
4:35 PM 63.5 °F 25.0 °F 23% 30.25 in 10.0 mi ESE 12.7 mph 16.1 mph N/A   Clear
4:55 PM 63.7 °F 23.9 °F 22% 30.25 in 10.0 mi ESE 9.2 mph 17.3 mph N/A   Clear
5:15 PM 63.1 °F 24.6 °F 23% 30.24 in 10.0 mi SE 9.2 mph - N/A   Clear
5:35 PM 63.3 °F 21.6 °F 20% 30.24 in 10.0 mi SE 6.9 mph 16.1 mph N/A   Clear
5:55 PM 63.3 °F 19.0 °F 18% 30.23 in 10.0 mi SSE 8.1 mph - N/A   Clear
6:15 PM 62.2 °F 18.9 °F 19% 30.23 in 10.0 mi South 9.2 mph - N/A   Clear
6:35 PM 61.5 °F 19.8 °F 20% 30.24 in 10.0 mi SE 5.8 mph - N/A   Clear
6:55 PM 59.9 °F 20.8 °F 22% 30.24 in 10.0 mi SE 4.6 mph - N/A   Clear
7:15 PM 58.3 °F 21.4 °F 24% 30.25 in 10.0 mi SE 6.9 mph - N/A   Clear
7:35 PM 57.4 °F 19.6 °F 23% 30.25 in 10.0 mi SE 5.8 mph - N/A   Clear
7:55 PM 56.7 °F 18.7 °F 23% 30.26 in 10.0 mi SE 4.6 mph - N/A   Clear
8:10 PM 55.9 °F 18.1 °F 23% 30.26 in 10.0 mi Calm Calm - N/A   Clear
8:35 PM 54.7 °F 16.7 °F 22% 30.27 in 10.0 mi Calm Calm - N/A   Clear
8:55 PM 54.0 °F 16.9 °F 23% 30.27 in 10.0 mi Calm Calm - N/A   Scattered Clouds
9:15 PM 51.1 °F 19.0 °F 28% 30.26 in 10.0 mi ESE 3.5 mph - N/A   Scattered Clouds
9:35 PM 52.7 °F 18.3 °F 26% 30.27 in 10.0 mi Calm Calm - N/A   Clear
9:55 PM 52.0 °F 19.9 °F 28% 30.26 in 10.0 mi SE 3.5 mph - N/A   Clear
10:15 PM 51.1 °F 22.3 °F 32% 30.26 in 10.0 mi SE 3.5 mph - N/A   Clear
10:35 PM 50.4 °F 28.6 °F 43% 30.27 in 10.0 mi SSE 3.5 mph - N/A   Scattered Clouds
10:55 PM 49.3 °F 30.7 °F 49% 30.28 in 10.0 mi Calm Calm - N/A   Mostly Cloudy
11:15 PM 49.1 °F 33.6 °F 55% 30.27 in 10.0 mi SE 4.6 mph - N/A   Scattered Clouds
11:35 PM 48.4 °F 35.8 °F 62% 30.26 in 10.0 mi SSE 3.5 mph - N/A   Clear
11:55 PM 48.2 °F 37.9 °F 68% 30.26 in 10.0 mi Calm Calm - N/A   Clear
12:15 AM 47.8 °F 39.9 °F 74% 30.27 in 10.0 mi SSE 3.5 mph - N/A   Clear